Home > Time Zones > World Clock > Weather > India > Thane > Past weeks

Flag for India Weather past 2 weeks in Thane, Maharashtra, India

Now
79 °F

Partly cloudy.


Feels Like: 83 °F
Forecast: 79 / 86 °F
Wind: 3 mph from Southeast

Location: Mumbai / Santacruz

Current Time: Aug 30, 2015 at 7:11:26 AM

Latest Report: Aug 30, 2015 at 4:40 AM


Visibility: 2 mi

Pressure: 29.71 "Hg

Humidity: 94%

Dew point: 77 °F

Location of ThaneLocation

Historic Weather in Thane — Graph

°F

Thane temperature yesterday

Maximum temperature yesterday: 86 °F (at 2:40 PM)
Minimum temperature yesterday: 79 °F (at 1:10 AM)
Average temperature yesterday: 81 °F

Past Weeks' High & Low Weather Summary

 TemperatureHumidityPressure
High88 °F (Aug 16, 12:10 PM)94% (Aug 16, 7:10 PM)29.86 "Hg (Aug 16, 7:10 PM)
Low79 °F (Aug 17, 12:40 AM)62% (Aug 21, 3:40 PM)29.68 "Hg (Aug 15, 4:40 AM)
Average83 °F81%29.77 "Hg
* Reported Aug 15 4:40 AM — Aug 30 4:40 AM, Thane, Weather by CustomWeather, © 2015

Note: Actual official high and low records may vary slightly from our data, if they occured in-between our weather recording intervals... More about our weather records

Advertising

Thane weather history for previous 24 hours

 ConditionsComfort  
Time TempWeatherWind HumidityBarometerVisibility
4:40 AM
Sun, Aug 30
79 °FPartly cloudy.3 mph94%29.71 "Hg2 mi
4:10 AM79 °FPartly cloudy.3 mph94%29.71 "Hg2 mi
3:40 AM79 °FPartly cloudy.3 mph94%29.71 "Hg2 mi
3:10 AM79 °FPartly cloudy.5 mph94%29.71 "Hg2 mi
2:40 AM79 °FLight rain. Partly cloudy.6 mph94%29.71 "Hg2 mi
2:10 AM79 °FPartly cloudy.3 mph94%29.74 "Hg2 mi
1:10 AM79 °FPartly cloudy.3 mph94%29.74 "Hg1 mi
12:40 AM79 °FPartly cloudy.7 mph94%29.77 "Hg1 mi
12:10 AM79 °FPartly cloudy.3 mph94%29.77 "Hg1 mi
11:40 PM
Sat, Aug 29
79 °FLight rain. Partly cloudy.3 mph94%29.77 "Hg1 mi
11:10 PM79 °FLight rain. Mostly cloudy.12 mph94%29.77 "Hg1 mi
10:40 PM82 °FPartly cloudy.5 mph79%29.77 "Hg2 mi
10:10 PM82 °FPartly cloudy.5 mph79%29.77 "Hg2 mi
9:40 PM82 °FPartly cloudy.6 mph79%29.77 "Hg2 mi
9:10 PM82 °FPartly cloudy.6 mph84%29.74 "Hg2 mi
8:40 PM82 °FPartly cloudy.6 mph84%29.74 "Hg2 mi
8:10 PM82 °FPartly cloudy.6 mph79%29.74 "Hg2 mi
7:10 PM84 °FBroken clouds.6 mph79%29.71 "Hg2 mi
6:40 PM84 °FBroken clouds.7 mph79%29.71 "Hg2 mi
6:10 PM84 °FBroken clouds.7 mph79%29.71 "Hg2 mi
5:10 PM84 °FBroken clouds.10 mph79%29.68 "Hg3 mi
4:40 PM84 °FBroken clouds.10 mph74%29.68 "Hg3 mi
2:40 PM86 °FBroken clouds.12 mph70%29.71 "Hg3 mi
10:40 AM84 °FBroken clouds.6 mph84%29.77 "Hg2 mi
10:10 AM82 °FScattered showers. Broken clouds.6 mph89%29.77 "Hg2 mi
8:40 AM79 °FBroken clouds.5 mph94%29.77 "Hg1 mi
8:10 AM79 °FDrizzle. More clouds than sun.6 mph94%29.77 "Hg1 mi
7:40 AM79 °FDrizzle. More clouds than sun.6 mph94%29.74 "Hg1 mi
7:10 AM79 °FScattered showers. Broken clouds.5 mph94%29.74 "Hg1 mi
Weather by CustomWeather, © 2015

See weather overviewHow to use our weather pages